{"data":{"norad_id":61661,"intl_designator":"2024-193A","name":"STARLINK-32238","alt_names":[],"object_type":"PAYLOAD","status":"ACTIVE","operator":null,"country":"US","launch_date":"2024-10-26","launch_site_code":"AFETR","launch_vehicle":null,"mission":null,"orbit_class":"UNKNOWN","rcs_meters":null,"size_class":null,"mass_kg":null,"dimensions":null,"purposes":["comms"],"wikipedia_slug":null,"has_3d_model":false,"image_url":null,"decayed_at":null,"tle_current":{"epoch":"2026-09-21T16:31:16.025088Z","epoch_age_seconds":89409,"freshness":"FRESH","line1":"1 61661U 24193A   26264.68837992  .00001810  00000+0  64695-4 0  9994","line2":"2 61661  53.1595 259.9951 0001185  85.2721 274.8417 15.34390507106546","mean_motion":15.34390507,"eccentricity":0.0001185,"inclination_deg":53.1595,"raan_deg":259.9951,"arg_perigee_deg":85.2721,"mean_anomaly_deg":274.8417,"bstar":6.4695e-5,"rev_number":10654,"period_min":93.848338700651,"perigee_km":461.92081263715,"apogee_km":463.54209846111,"semimajor_km":6840.8684555491,"source":"CELESTRAK","updated_at":"2026-09-22T09:00:49.399562Z"}}}